Location: Unspecified
(48.2082°N, 0.0000°E)
Time: 11:48:45
(UTC+00:00)

Courier 1B Rocket - Visible Passes

Search period start: 05 August 2020 00:00
Search period end: 15 August 2020 00:00
Orbit: 920 x 1202 km, 28.3° (Epoch: 04 August)

Date Brightness Start Highest point End Pass type
(mag) Time Alt. Az. Time Alt. Az. Time Alt. Az.
09 Aug 7.0 03:58:27 10° S 04:00:18 11° SSE 04:02:11 10° SSE visible
11 Aug 6.9 03:48:44 10° SSW 03:51:05 12° S 03:53:28 10° SSE visible
12 Aug 6.9 02:50:11 10° S 02:50:29 10° SSE 02:51:33 10° SSE visible
13 Aug 6.8 03:39:33 10° SSW 03:41:53 12° S 03:44:16 10° SSE visible
14 Aug 6.9 02:42:08 11° SSE 02:42:08 11° SSE 02:43:09 10° SSE visible
